Theta_e
338 345 346 348 347 347 346 345 345 347 347 347 347 347 347 346 347 348 349 348 349 349 348 346 344 342 342 341 341 341 340 339 339 340 341 340 339 338 340 339 339 337 339
342 345 346 348 346 345 345 346 346 344 344 345 345 345 345 344 344 345 346 346 347 346 345 343 341 341 340 339 338 338 337 337 337 337 337 341 342 339 339 340 340 335 338
343 346 346 346 347 345 346 345 345 344 342 344 343 343 341 341 341 341 342 344 344 342 341 342 341 340 339 338 337 337 337 336 336 335 335 334 337 338 338 337 338 338 337
343 345 345 344 346 345 344 343 344 344 343 340 339 339 339 339 340 340 340 342 342 341 340 341 340 340 338 337 336 336 335 335 334 333 332 333 332 336 336 336 336 335 335
343 345 343 344 345 344 343 343 344 344 342 340 341 339 338 337 337 338 339 341 342 340 340 342 339 338 337 335 334 334 333 333 331 332 334 333 333 334 335 333 332 332 334
342 344 343 344 345 344 343 344 344 344 343 340 339 337 337 336 336 337 338 340 341 340 338 338 339 337 335 334 333 334 334 332 330 331 332 333 332 334 333 332 330 330 333
340 343 344 343 344 344 343 343 343 343 342 340 337 338 335 335 334 336 336 336 337 338 337 338 338 336 334 333 332 332 331 329 329 330 331 331 330 330 330 329 329 328 328
338 341 343 337 340 342 343 343 342 342 341 339 337 337 337 335 336 335 334 335 336 336 336 336 335 334 333 332 331 331 328 326 325 327 329 330 332 330 329 327 327 327 327
338 339 340 342 339 335 338 338 339 340 340 339 338 338 337 336 336 337 335 334 335 335 334 334 333 333 332 331 329 328 325 323 324 327 327 328 331 329 329 328 327 326 325
335 336 337 339 340 339 339 332 334 336 337 337 334 332 332 332 332 332 331 334 334 334 333 332 332 331 330 329 327 324 322 321 322 325 326 328 329 329 329 327 326 325 324
330 333 335 336 337 337 335 331 330 331 331 330 329 325 327 333 331 330 329 333 334 333 331 330 328 327 325 325 325 322 321 321 322 323 325 328 328 328 328 326 324 323 322
325 329 332 334 334 336 334 332 334 333 332 330 329 327 329 330 330 329 326 327 329 329 331 329 327 323 322 324 322 321 322 322 322 322 324 327 327 327 326 325 324 323 322
325 328 329 331 334 335 334 332 331 330 329 328 326 326 326 326 328 329 329 327 327 320 324 323 323 322 321 321 322 322 322 322 322 323 321 323 326 326 326 325 324 324 324
323 325 328 330 331 333 334 332 331 328 327 326 325 324 324 324 324 325 325 324 324 323 323 322 322 321 320 319 320 320 321 322 322 322 321 317 322 326 328 329 328 327 327
323 324 325 329 329 330 331 332 331 328 326 325 325 325 323 323 323 322 322 322 322 322 321 322 321 320 320 318 319 319 320 321 322 322 323 315 319 324 327 329 330 330 330
324 324 326 327 328 328 328 330 329 330 328 326 324 325 324 324 323 322 321 321 321 321 321 322 321 321 319 318 318 318 319 320 321 321 322 323 318 321 324 327 329 330 331
325 324 325 327 327 328 328 328 328 328 328 327 326 325 325 324 323 322 321 321 321 321 320 321 320 319 318 317 317 317 318 319 319 319 320 321 321 318 319 323 326 327 328
326 324 325 326 326 326 327 328 328 328 329 329 328 327 325 324 323 322 322 321 322 321 321 320 319 319 318 317 316 317 317 317 317 317 318 318 319 318 318 318 320 322 323
327 326 325 326 326 326 326 326 327 328 329 329 329 329 327 324 322 321 321 321 322 321 321 319 318 317 317 317 315 316 317 317 317 315 316 316 316 316 317 316 315 315 318
327 328 328 327 326 326 327 326 326 326 327 327 327 328 329 327 324 321 321 319 318 319 319 317 317 315 315 315 312 314 317 317 318 316 315 314 315 315 316 316 317 316 313
325 326 327 327 327 326 325 325 325 325 327 328 328 328 329 328 326 323 322 320 319 318 317 315 315 314 314 312 315 316 317 316 315 315 315 316 315 315 316 316 315 315 315
321 325 327 327 328 327 327 328 328 329 329 330 330 329 329 328 327 325 323 322 320 318 317 316 314 313 313 312 314 310 311 315 315 314 315 314 315 314 314 314 314 314 314
318 321 325 327 328 328 329 327 324 325 327 327 328 329 328 329 327 326 324 323 322 320 319 317 316 314 315 311 312 313 308 305 310 316 313 314 313 313 314 314 313 313 312
315 319 323 326 327 328 329 327 326 325 324 327 329 330 329 330 328 327 326 325 323 321 320 319 319 317 314 312 309 309 310 309 305 304 312 313 312 312 313 312 311 310 309
305 313 319 323 326 327 328 328 327 326 327 327 326 327 325 327 329 328 327 325 323 322 320 322 317 315 315 315 312 309 309 309 308 305 302 305 308 312 312 310 309 307 305
298 305 312 318 322 325 327 328 327 327 325 324 325 324 324 323 326 326 325 325 323 322 321 320 318 316 315 314 313 312 310 308 307 305 303 304 304 307 309 309 305 302 301
Wind_Speed
3 5 12 16 15 14 14 14 14 13 14 16 18 17 17 18 17 15 15 16 17 19 21 22 21 20 21 21 21 21 21 21 21 20 19 18 18 15 17 16 15 15 17
8 7 9 15 15 14 15 14 14 13 13 15 16 16 17 16 16 15 15 16 16 19 20 20 19 20 20 19 19 19 19 18 18 17 15 16 18 19 19 17 15 15 16
9 9 12 13 14 14 12 13 14 15 15 15 16 17 17 15 15 16 14 14 16 17 18 19 19 19 19 18 18 18 18 18 17 16 14 10 14 20 19 18 17 18 16
10 10 12 12 14 13 12 11 11 16 15 15 16 15 16 16 16 15 15 14 16 17 16 18 18 19 19 18 18 17 17 17 16 14 10 10 12 17 17 18 19 19 19
10 11 12 13 14 13 12 11 10 15 17 14 16 16 16 17 16 15 14 15 15 16 17 18 17 19 18 17 16 16 15 15 15 12 11 11 11 14 17 16 15 16 15
10 11 12 14 14 14 13 12 11 16 17 15 16 16 15 15 15 15 14 13 15 17 17 15 17 18 17 16 17 16 15 14 11 10 10 11 11 16 15 15 15 14 15
10 9 11 12 14 14 12 13 13 15 15 16 14 14 14 14 14 13 14 13 14 15 16 15 16 16 15 16 15 14 14 13 10 10 9 9 11 14 14 13 14 13 14
10 8 9 9 10 13 14 12 12 13 15 15 13 12 13 13 13 13 13 13 13 13 15 15 15 14 14 14 14 13 13 11 9 9 9 8 12 14 13 13 13 13 13
8 8 7 8 7 9 12 13 12 12 12 13 12 11 11 10 13 11 10 11 12 13 13 14 14 13 13 13 13 12 12 11 9 6 7 6 10 13 12 12 12 11 11
7 7 8 6 4 6 8 11 11 11 11 11 11 9 8 9 11 10 8 9 11 11 12 12 12 13 11 11 10 10 9 9 7 6 6 6 10 11 11 11 11 10 9
6 6 7 7 6 4 5 6 10 11 10 9 9 9 8 6 7 7 7 9 9 10 11 11 11 11 10 10 9 8 6 4 5 4 4 8 9 10 9 9 9 8 8
11 9 8 9 7 7 4 3 4 6 6 6 6 6 5 5 5 5 6 8 8 9 10 11 10 9 6 4 3 5 3 4 4 4 3 8 8 8 7 7 7 7 6
11 9 9 9 8 8 7 4 3 2 3 4 6 5 5 4 4 3 3 3 3 5 3 4 4 4 5 4 3 3 3 3 2 2 3 7 7 7 6 6 5 6 6
12 11 9 8 8 7 5 5 4 3 3 3 4 6 4 3 3 3 2 3 2 2 3 3 2 3 4 4 4 4 4 3 2 1 3 6 7 7 8 8 6 6 6
11 10 10 9 8 8 7 5 6 5 4 5 5 5 4 4 4 3 2 2 2 1 2 2 2 2 3 4 3 3 3 3 3 2 2 5 6 8 9 10 11 11 11
10 10 9 10 9 9 9 10 7 5 6 5 4 5 5 3 3 3 2 2 1 1 2 2 1 1 2 2 3 3 3 3 4 4 3 4 6 8 9 11 13 13 15
10 10 12 11 9 10 9 9 8 7 7 6 6 7 7 6 5 4 3 2 2 2 2 1 1 0 1 2 3 3 3 4 4 5 4 4 4 7 8 11 12 13 15
10 12 11 10 11 10 10 8 7 7 7 6 6 6 7 6 7 5 4 3 3 3 2 2 1 1 1 2 3 3 4 4 5 6 5 5 4 5 5 9 11 12 14
13 11 12 12 12 12 10 8 8 8 7 7 6 6 8 7 6 5 4 3 4 3 3 2 2 2 2 2 3 4 4 5 5 4 5 5 4 4 4 6 8 9 11
11 11 12 11 12 11 7 6 4 5 5 5 6 7 9 6 7 5 4 5 4 3 3 3 4 2 3 3 4 5 5 4 3 3 3 2 3 4 4 5 6 5 8
10 12 13 13 12 9 6 6 5 6 6 5 6 8 8 7 8 7 4 4 5 5 4 4 2 3 2 1 3 3 2 3 1 1 0 2 4 4 5 6 5 5 6
14 15 13 14 13 12 8 7 4 6 5 7 7 9 10 9 8 7 7 6 6 4 5 5 4 2 1 2 0 1 3 3 3 1 2 3 4 4 6 6 8 7 7
15 14 15 15 15 14 14 6 3 3 2 4 4 5 7 9 10 10 10 7 7 6 5 5 5 5 3 2 4 2 2 2 3 2 4 3 5 3 4 5 6 8 9
16 13 14 14 15 13 14 11 13 10 9 8 7 7 7 9 8 10 10 9 7 6 6 4 4 3 3 4 2 2 1 3 2 2 2 2 2 4 6 5 6 8 10
9 13 13 13 14 13 14 14 12 11 9 5 5 7 5 5 8 8 6 6 6 5 4 6 4 4 3 2 3 2 2 1 2 3 2 2 3 6 4 4 6 7 10
7 9 11 13 14 14 15 16 16 15 11 8 8 7 6 3 4 5 5 5 5 5 5 4 5 5 4 2 2 2 2 1 2 2 2 1 4 4 8 6 8 8 9
Wind_Direction
176 151 132 124 118 111 108 106 97 91 94 90 88 86 87 82 82 78 74 73 75 78 81 79 76 74 72 71 69 67 63 59 56 55 55 57 52 50 56 63 56 56 58
146 142 120 108 112 112 110 109 98 89 93 96 95 92 88 85 84 85 81 77 78 79 80 81 79 78 75 72 70 67 65 60 56 53 54 62 64 64 57 51 59 64 58
136 138 120 111 110 108 105 103 105 98 92 98 95 91 89 91 91 83 81 79 82 85 86 87 85 83 78 73 70 68 67 63 58 50 41 54 60 60 59 46 52 57 59
137 125 119 111 111 109 105 102 104 106 99 102 103 96 98 92 89 91 94 89 88 87 88 89 83 80 78 75 71 67 63 60 55 48 55 55 65 62 57 50 48 46 50
129 127 128 120 120 112 106 108 97 113 104 105 100 98 96 99 98 96 94 93 89 88 76 84 86 81 78 73 67 66 66 63 57 56 55 62 60 58 60 57 53 49 44
135 137 134 131 128 120 116 105 104 115 109 104 106 105 98 99 101 94 91 89 85 82 82 82 85 86 79 72 67 67 69 67 61 57 55 55 62 60 56 63 58 56 52
139 139 137 131 134 130 127 120 106 105 110 103 103 102 109 107 103 101 97 91 83 87 87 88 89 90 84 75 70 69 73 65 64 60 56 57 62 60 61 58 58 53 52
141 137 134 134 142 134 125 117 110 103 104 111 112 114 104 110 99 98 100 99 91 94 92 90 89 88 82 77 72 70 65 56 57 54 48 51 51 60 60 60 57 54 47
137 142 130 139 147 135 129 128 125 119 117 120 118 115 112 116 105 94 97 99 95 96 93 86 82 83 84 81 75 68 63 53 56 55 53 50 46 59 58 55 54 49 45
146 141 128 125 132 140 137 128 129 124 113 106 100 97 101 91 99 98 88 96 99 99 96 89 84 79 81 80 78 72 67 59 57 56 49 48 46 51 54 50 46 45 43
165 145 138 134 123 116 131 142 130 125 119 109 102 91 94 106 102 98 101 97 95 95 98 89 83 75 66 58 60 63 58 55 54 50 45 30 46 51 51 45 39 39 43
179 172 160 156 139 137 118 101 118 119 123 128 127 116 113 116 112 105 96 81 76 71 74 85 78 63 60 58 59 57 55 50 48 40 38 16 34 40 40 33 30 26 24
185 181 180 164 158 148 144 149 128 124 129 128 129 127 118 118 115 107 105 85 74 57 65 67 72 55 61 55 52 44 39 40 32 26 18 360 2 6 11 12 4 360 355
184 191 185 172 166 160 145 147 150 155 149 149 148 141 138 126 127 122 115 87 64 45 66 58 58 49 46 44 39 28 24 22 16 353 341 338 332 330 336 339 335 324 322
183 192 190 175 174 166 170 167 155 173 177 169 164 160 150 151 154 148 143 131 119 103 84 89 64 32 24 20 27 20 10 358 331 315 301 302 311 314 315 318 320 320 320
183 184 183 184 180 171 182 181 189 177 182 177 173 172 167 160 155 161 166 176 168 121 109 84 54 25 16 355 353 349 326 307 299 298 299 303 306 311 313 314 312 311 311
187 172 184 188 185 184 187 180 181 190 189 186 184 182 182 179 178 170 173 192 177 159 139 124 126 24 317 320 301 302 303 300 295 293 299 296 309 299 305 311 311 310 310
175 179 181 184 187 190 190 192 188 187 191 192 189 185 192 186 180 177 182 199 181 176 181 186 194 244 273 285 304 304 296 290 291 292 289 306 307 305 307 302 311 315 319
192 180 184 185 190 193 197 195 196 194 199 196 193 195 194 197 188 179 189 192 182 184 196 195 206 235 256 273 283 285 279 283 288 292 304 305 311 316 323 336 326 325 328
195 191 187 186 193 193 186 182 191 194 212 204 199 204 200 193 186 184 182 183 176 184 197 199 220 215 255 271 283 288 288 274 278 290 319 340 2 10 359 354 350 348 330
192 195 195 186 192 181 178 185 199 206 196 197 196 199 191 186 181 186 194 184 185 202 194 190 194 226 255 242 310 309 285 303 314 46 67 12 45 29 12 10 3 350 345
203 204 197 200 187 189 195 196 187 188 200 198 197 200 190 185 181 185 189 200 191 192 193 187 181 183 184 184 334 10 342 328 29 324 35 33 37 20 8 6 0 353 357
206 203 200 200 195 191 192 170 125 114 115 183 186 205 197 190 186 187 193 195 202 194 207 191 183 180 194 186 221 175 157 235 324 322 34 36 28 10 345 355 358 354 3
207 203 207 196 199 197 188 185 196 197 194 203 198 202 194 188 199 197 192 198 194 193 205 175 183 191 159 200 199 223 138 150 232 303 332 30 6 325 332 359 350 18 23
191 197 200 199 198 195 192 192 196 205 205 184 184 191 187 199 196 200 188 172 180 180 184 191 168 184 194 177 172 163 177 170 204 218 236 294 329 324 329 355 27 48 38
189 190 189 191 201 192 192 196 199 204 195 186 188 186 190 189 172 176 171 172 169 169 168 167 166 166 169 161 147 141 162 163 138 247 280 276 324 307 324 344 52 41 29